Location: Knowlton
(51.2333°N, 1.2667°E)
Time: 09:16:16
(UTC+00:00)

NOSS 3-1 (A) - Pass Details

Date: 18 April 2021
Orbit: 733 x 1479 km, 63.4° (Epoch: 01 May)

Event Time Altitude Azimuth Distance (km) Brightness Sun altitude
Rises 21:49:55 0° 312° (NW) 3,777 7.9 -22.1°
Reaches altitude 10° 21:52:25 10° 317° (NW) 2,924 7.1 -22.3°
Maximum altitude 21:59:25 60° 37° (NE) 1,390 4.3 -22.8°
Enters shadow 22:04:04 27° 107° (ESE) 2,287 5.0 -23.2°
